Location: Allaines
(49.9632°N, 2.9458°E)
Time: 18:50:29
(UTC+00:00)

ALOS 2 - Pass Details

Date: 09 April 2020
Orbit: 630 x 632 km, 97.9° (Epoch: 24 May)

Event Time Altitude Azimuth Distance (km) Brightness Sun altitude
Exits shadow 22:36:35 32° 23° (NNE) 1,101 4.1 -29.9°
Drops below altitude 10° 22:39:18 10° 358° (N) 2,027 6.0 -30.0°
Sets 22:41:35 0° 352° (N) 2,940 7.2 -30.2°
